Location: Bennemühlen
(52.5740°N, 9.7135°E)
Time: 20:20:49
(UTC+00:00)

Tiros 1 despin weight - Pass Details

Date: 24 February 2026
Orbit: 556 x 593 km, 48.2° (Epoch: 5 March)

Event Time Altitude Azimuth Distance (km) Brightness Sun altitude
Rises 12:22:11 0° 223° (SW) 2,752 ? 27.2°
Reaches altitude 10° 12:24:44 10° 210° (SSW) 1,852 ? 27.1°
Maximum altitude 12:28:12 25° 154° (SSE) 1,153 ? 27.0°
Drops below altitude 10° 12:31:39 10° 99° (E) 1,844 ? 26.9°
Sets 12:34:10 0° 86° (E) 2,739 ? 26.8°
